Regional Weather Roundup
Issued by NWS

Home | Current Version | Previous Version | Graphics & Text | Print | Product List | Glossary On
Versions: 1 2 3 4 5 6 7 8 9 10 11 12 13 14 15 16 17 18 19 20 21 22 23 24 25 26 27 28 29 30 31 32 33 34 35 36 37 38 39 40 41 42 43 44 45 46 47 48 49 50
171
ASUS44 KMEG 082300
RWRTN
TENNESSEE HOURLY STATE WEATHER ROUNDUP
NATIONAL WEATHER SERVICE MEMPHIS TN
500 PM CST MON FEB 08 2016

TNZ002-004-019-021-049-052-054-088>092-090000-
WEST TENNESSEE

CITY           SKY/WX    TMP DP  RH WIND       PRES   REMARKS
MEMPHIS INTL   CLOUDY    41  23  48 NW23G44   29.97R
NWS MEMPHIS      N/A     41 N/A N/A MISG        N/A
JACKSON        CLOUDY    37  23  56 NW16G28   29.95R WCI  28
DYERSBURG      CLOUDY    36  19  51 NW23G32   29.97R WCI  24
UNION CITY     CLOUDY    34  19  55 W15       29.91S WCI  24
PARIS          MOCLDY    30  19  64 NW12      29.90R WCI  21
$$

TNZ008-025-027-028-033-062-065-066-090000-
NORTH MIDDLE TENNESSEE

CITY           SKY/WX    TMP DP  RH WIND       PRES   REMARKS
NASHVILLE      FLURRIES  33  26  75 W10       29.87R WCI  25
CLARKSVILLE    LGT SNOW  30  27  88 NW10      29.88R FOG     WCI  21
CROSSVILLE     FLURRIES  36  23  59 W13G21    29.74R WCI  27
$$

TNZ061-075-076-078-094-096-097-090000-
SOUTH MIDDLE TENNESSEE

CITY           SKY/WX    TMP DP  RH WIND       PRES   REMARKS
TULLAHOMA      CLOUDY    30  25  80 W13       29.85R WCI  20
WINCHESTER     CLOUDY    34  27  75 NW13      29.86R WCI  25
COLUMBIA       CLOUDY    36  25  64 W8        29.86R WCI  29
SHELBYVILLE    CLOUDY    36  28  75 W13       29.87R WCI  27
$$

TNZ017-018-042-046-047-090000-
NORTHEAST TENNESSEE

CITY           SKY/WX    TMP DP  RH WIND       PRES   REMARKS
TRI CITIES     FOG       34  32  92 W7        29.70R VSB 1   WCI  28
$$

TNZ012-013-036-069-073-074-090000-
CENTRAL EAST TENNESSEE

CITY           SKY/WX    TMP DP  RH WIND       PRES   REMARKS
KNOXVILLE      CLOUDY    40  22  48 W16G28    29.75R WCI  31
OAK RIDGE      CLOUDY    40  27  59 VRB6      29.77R
GATLINBURG     MOCLDY    39  21  48 W14       29.74R WCI  31
$$

TNZ083-085-099-090000-
SOUTHEAST TENNESSEE

CITY           SKY/WX    TMP DP  RH WIND       PRES   REMARKS
CHATTANOOGA    CLOUDY    43  20  39 W13G22    29.80S
$$

SKY/WX REPORTED AS FAIR MEANS FEW OR NO CLOUDS BELOW
12 THOUSAND FEET.





USA.gov is the U.S. government's official web portal to all federal, state and local government web resources and services.